Location: Biltmore Gardens
(41.6070°N, 83.4666°W)
Time: 14:07:28
(UTC+00:00)

CZ-4C R/B - Pass Details

Date: 14 July 2020
Orbit: 632 x 1369 km, 63.4° (Epoch: 04 August)

Event Time Altitude Azimuth Distance (km) Brightness Sun altitude
Rises 05:30:51 0° 320° (NW) 3,935 6.4 -26.8°
Reaches altitude 10° 05:33:28 10° 316° (NW) 3,070 5.7 -26.8°
Maximum altitude 05:40:42 52° 243° (WSW) 1,561 3.3 -26.8°
Enters shadow 05:41:59 48° 214° (SW) 1,652 3.3 -26.8°
